RYR50XY LFMU-EGGW

Flight info

Callsign RYR50XY
Flight time 1h 46m
Altitude 38000
Route FJR DCT NG DCT MOLEN DCT MTL DCT ETREK DCT MADOT DCT MOPEM DCT CACHI DCT AVLON DCT OKRIX DCT BRY DCT CLM DCT KOPOR DCT PIREG DCT SOSUN DCT SUBIP UM733 UNDUG
Aircraft B738/M-SDE2E3FGHIRWXY/LB1

Departure

Time 2026-04-26 12:14
Airport Béziers Vias airport (LFMU)

Arrival

Time 2026-04-26 14:01
Airport London Luton Airport (EGGW)
Time Latitude Longitude Altitude Speed Heading
2026-04-26 11:55 43.32153 3.35268 58 ft 0 kts 184°
2026-04-26 12:08 43.32166 3.35269 68 ft 2 kts 185°
2026-04-26 12:08 43.32181 3.35263 51 ft 2 kts 102°
2026-04-26 12:09 43.32183 3.35244 52 ft 1 kts 94°
2026-04-26 12:09 43.32183 3.35241 52 ft 0 kts 94°
2026-04-26 12:10 43.32182 3.35263 51 ft 11 kts 90°
2026-04-26 12:10 43.32229 3.35325 55 ft 10 kts
2026-04-26 12:11 43.32299 3.35335 56 ft 11 kts
2026-04-26 12:11 43.32339 3.35412 53 ft 12 kts 87°
2026-04-26 12:11 43.32334 3.35550 53 ft 18 kts 95°
2026-04-26 12:11 43.32322 3.35728 52 ft 19 kts 94°
2026-04-26 12:12 43.32318 3.35788 53 ft 19 kts 95°
2026-04-26 12:12 43.32312 3.35886 53 ft 17 kts 95°
2026-04-26 12:12 43.32305 3.36052 49 ft 19 kts 94°
2026-04-26 12:12 43.32298 3.36180 49 ft 21 kts 94°
2026-04-26 12:13 43.32281 3.36464 50 ft 26 kts 94°
2026-04-26 12:13 43.32269 3.36642 50 ft 16 kts 108°
2026-04-26 12:13 43.32250 3.36733 51 ft 5 kts 44°
2026-04-26 12:13 43.32265 3.36719 50 ft 3 kts 288°
2026-04-26 12:14 43.32279 3.36548 49 ft 43 kts 273°
2026-04-26 12:14 43.32320 3.35778 53 ft 116 kts 274°
2026-04-26 12:14 43.32393 3.34431 238 ft 158 kts 273°
2026-04-26 12:14 43.32552 3.32885 903 ft 170 kts 282°
2026-04-26 12:15 43.32879 3.31269 1664 ft 181 kts 292°
2026-04-26 12:15 43.33463 3.29709 2548 ft 186 kts 297°
2026-04-26 12:15 43.34062 3.28058 3295 ft 201 kts 301°
2026-04-26 12:15 43.35165 3.26711 3602 ft 232 kts 342°
2026-04-26 12:16 43.36839 3.26723 4080 ft 256 kts 21°
2026-04-26 12:16 43.38233 3.28253 4987 ft 264 kts 55°
2026-04-26 12:16 43.38862 3.30642 5917 ft 272 kts 82°
2026-04-26 12:16 43.38920 3.33270 6819 ft 278 kts 87°
2026-04-26 12:17 43.38949 3.35958 7675 ft 283 kts 86°
2026-04-26 12:17 43.39026 3.38679 8573 ft 287 kts 85°
2026-04-26 12:17 43.39142 3.41433 9460 ft 291 kts 84°
2026-04-26 12:17 43.39273 3.44194 10291 ft 295 kts 84°
2026-04-26 12:18 43.39321 3.45152 10504 ft 300 kts 83°
2026-04-26 12:18 43.39449 3.46547 10643 ft 311 kts 76°
2026-04-26 12:18 43.40263 3.49372 10888 ft 332 kts 62°
2026-04-26 12:18 43.41354 3.52290 11509 ft 342 kts 61°
2026-04-26 12:19 43.42462 3.55208 12292 ft 346 kts 61°
2026-04-26 12:19 43.43578 3.58174 13123 ft 350 kts 62°
2026-04-26 12:19 43.44680 3.61139 13902 ft 355 kts 62°
2026-04-26 12:19 43.45802 3.64196 14603 ft 360 kts 62°
2026-04-26 12:20 43.46930 3.67292 15310 ft 364 kts 63°
2026-04-26 12:20 43.48067 3.70426 16010 ft 368 kts 63°
2026-04-26 12:20 43.49215 3.73605 16703 ft 373 kts 63°
2026-04-26 12:20 43.50378 3.76828 17377 ft 377 kts 63°
2026-04-26 12:21 43.51552 3.80087 18073 ft 382 kts 63°
2026-04-26 12:21 43.52742 3.83395 18689 ft 387 kts 63°
2026-04-26 12:21 43.53943 3.86737 19251 ft 392 kts 63°
2026-04-26 12:21 43.55160 3.90125 19836 ft 396 kts 63°
2026-04-26 12:22 43.55969 3.92382 20209 ft 399 kts 63°
2026-04-26 12:22 43.57206 3.95833 20801 ft 403 kts 63°
2026-04-26 12:22 43.58669 3.99141 21353 ft 406 kts 50°
2026-04-26 12:22 43.60540 4.02080 21926 ft 409 kts 46°
2026-04-26 12:23 43.62489 4.04969 22468 ft 414 kts 45°
2026-04-26 12:23 43.64465 4.07884 22996 ft 418 kts 46°
2026-04-26 12:23 43.66452 4.10852 23517 ft 423 kts 46°
2026-04-26 12:23 43.68447 4.13876 23979 ft 427 kts 46°
2026-04-26 12:24 43.70445 4.16940 24449 ft 429 kts 46°
2026-04-26 12:24 43.72415 4.19980 24931 ft 431 kts 47°
2026-04-26 12:24 43.74419 4.23083 25362 ft 435 kts 47°
2026-04-26 12:25 43.78483 4.29384 26277 ft 439 kts 47°
2026-04-26 12:25 43.80527 4.32555 26720 ft 442 kts 47°
2026-04-26 12:25 43.82554 4.35703 27116 ft 445 kts 47°
2026-04-26 12:25 43.84748 4.38730 27494 ft 447 kts 38°
2026-04-26 12:26 43.87294 4.41242 27908 ft 448 kts 29°
2026-04-26 12:26 43.90081 4.43159 28308 ft 448 kts 19°
2026-04-26 12:26 43.93001 4.44703 28695 ft 450 kts 18°
2026-04-26 12:26 43.95949 4.46209 29090 ft 452 kts 18°
2026-04-26 12:27 43.98866 4.47720 29501 ft 454 kts 19°
2026-04-26 12:27 44.00780 4.48736 29750 ft 456 kts 19°
2026-04-26 12:27 44.03741 4.50333 30111 ft 458 kts 19°
2026-04-26 12:27 44.06727 4.51953 30392 ft 461 kts 19°
2026-04-26 12:28 44.09726 4.53557 30688 ft 463 kts 19°
2026-04-26 12:28 44.12747 4.55157 31007 ft 464 kts 19°
2026-04-26 12:28 44.15777 4.56758 31382 ft 464 kts 19°
2026-04-26 12:28 44.18757 4.58335 31807 ft 462 kts 19°
2026-04-26 12:29 44.21772 4.59935 32164 ft 462 kts 19°
2026-04-26 12:29 44.24777 4.61533 32513 ft 462 kts 19°
2026-04-26 12:29 44.30760 4.64725 33383 ft 458 kts 19°
2026-04-26 12:30 44.33740 4.66317 33813 ft 456 kts 18°
2026-04-26 12:30 44.36718 4.67911 34116 ft 457 kts 19°
2026-04-26 12:30 44.39646 4.69479 34467 ft 455 kts 18°
2026-04-26 12:31 44.45574 4.72659 35136 ft 452 kts 18°
2026-04-26 12:31 44.48475 4.74217 35407 ft 452 kts 18°
2026-04-26 12:31 44.51416 4.75787 35716 ft 451 kts 17°
2026-04-26 12:31 44.54434 4.76903 36000 ft 447 kts
2026-04-26 12:32 44.57522 4.77297 36325 ft 442 kts 358°
2026-04-26 12:32 44.60580 4.77045 36635 ft 437 kts 348°
2026-04-26 12:32 44.66545 4.75686 37144 ft 437 kts 347°
2026-04-26 12:33 44.69540 4.74974 37441 ft 435 kts 347°
2026-04-26 12:33 44.72529 4.74275 37748 ft 434 kts 348°
2026-04-26 12:33 44.75507 4.73592 37976 ft 434 kts 348°
2026-04-26 12:33 44.78491 4.72919 38132 ft 434 kts 348°
2026-04-26 12:34 44.81463 4.72255 38110 ft 435 kts 348°
2026-04-26 12:34 44.87414 4.70932 38123 ft 434 kts 348°
2026-04-26 12:35 44.93363 4.69607 38128 ft 433 kts 348°
2026-04-26 12:35 44.99306 4.68279 38144 ft 432 kts 348°
2026-04-26 12:36 45.05181 4.66963 38141 ft 431 kts 348°
2026-04-26 12:36 45.11110 4.65631 38143 ft 431 kts 348°
2026-04-26 12:37 45.17004 4.64306 38142 ft 431 kts 348°
2026-04-26 12:37 45.22941 4.62960 38148 ft 432 kts 348°
2026-04-26 12:38 45.28877 4.61599 38154 ft 432 kts 349°
2026-04-26 12:38 45.34807 4.60236 38169 ft 432 kts 349°
2026-04-26 12:39 45.40738 4.58871 38165 ft 432 kts 349°
2026-04-26 12:39 45.46675 4.57503 38173 ft 432 kts 349°
2026-04-26 12:40 45.52603 4.56134 38182 ft 432 kts 349°
2026-04-26 12:40 45.56401 4.55255 38175 ft 431 kts 349°
2026-04-26 12:41 45.62289 4.53891 38176 ft 431 kts 349°
2026-04-26 12:41 45.68210 4.52515 38167 ft 431 kts 349°
2026-04-26 12:42 45.74126 4.51139 38164 ft 430 kts 349°
2026-04-26 12:42 45.80036 4.49764 38155 ft 430 kts 349°
2026-04-26 12:43 45.85941 4.48388 38164 ft 429 kts 349°
2026-04-26 12:43 45.91829 4.47013 38172 ft 429 kts 349°
2026-04-26 12:44 45.97722 4.45633 38159 ft 428 kts 349°
2026-04-26 12:44 46.03592 4.44255 38169 ft 427 kts 349°
2026-04-26 12:45 46.09454 4.42877 38172 ft 427 kts 349°
2026-04-26 12:45 46.15321 4.41494 38170 ft 427 kts 349°
2026-04-26 12:46 46.21190 4.40108 38173 ft 427 kts 349°
2026-04-26 12:46 46.27056 4.38719 38165 ft 426 kts 349°
2026-04-26 12:47 46.32854 4.37001 38174 ft 425 kts 345°
2026-04-26 12:47 46.38541 4.34950 38163 ft 423 kts 345°
2026-04-26 12:48 46.44245 4.32886 38166 ft 422 kts 345°
2026-04-26 12:48 46.49940 4.30865 38188 ft 420 kts 345°
2026-04-26 12:49 46.55615 4.28866 38177 ft 419 kts 345°
2026-04-26 12:49 46.61276 4.26872 38175 ft 418 kts 345°
2026-04-26 12:50 46.66931 4.24875 38180 ft 417 kts 345°
2026-04-26 12:50 46.72566 4.22880 38194 ft 416 kts 345°
2026-04-26 12:51 46.78189 4.20884 38170 ft 416 kts 345°
2026-04-26 12:51 46.83821 4.18882 38173 ft 417 kts 345°
2026-04-26 12:52 46.89461 4.16872 38180 ft 417 kts 345°
2026-04-26 12:52 46.95100 4.14858 38180 ft 418 kts 345°
2026-04-26 12:53 47.00744 4.12837 38176 ft 418 kts 345°
2026-04-26 12:53 47.06398 4.10795 38188 ft 418 kts 343°
2026-04-26 12:54 47.11815 4.07876 38191 ft 417 kts 337°
2026-04-26 12:54 47.17189 4.04580 38183 ft 416 kts 336°
2026-04-26 12:55 47.22449 4.01389 38180 ft 415 kts 337°
2026-04-26 12:55 47.27777 3.98204 38179 ft 414 kts 337°
2026-04-26 12:56 47.33090 3.95037 38202 ft 413 kts 337°
2026-04-26 12:56 47.38413 3.91859 38184 ft 412 kts 337°
2026-04-26 12:57 47.43734 3.88673 38185 ft 411 kts 337°
2026-04-26 12:57 47.49042 3.85488 38192 ft 411 kts 337°
2026-04-26 12:58 47.56982 3.80712 38195 ft 410 kts 337°
2026-04-26 12:58 47.62285 3.77533 38198 ft 411 kts 337°
2026-04-26 12:59 47.66928 3.74748 38196 ft 411 kts 337°
2026-04-26 12:59 47.72187 3.71585 38195 ft 411 kts 337°
2026-04-26 13:00 47.77491 3.68386 38213 ft 412 kts 336°
2026-04-26 13:00 47.82821 3.65164 38203 ft 413 kts 336°
2026-04-26 13:01 47.88152 3.61934 38204 ft 413 kts 336°
2026-04-26 13:01 47.93491 3.58693 38209 ft 414 kts 336°
2026-04-26 13:02 47.98788 3.55466 38216 ft 414 kts 336°
2026-04-26 13:02 48.04116 3.52192 38210 ft 414 kts 336°
2026-04-26 13:03 48.09457 3.48899 38214 ft 414 kts 336°
2026-04-26 13:03 48.14786 3.45608 38220 ft 414 kts 336°
2026-04-26 13:04 48.20106 3.42315 38219 ft 414 kts 336°
2026-04-26 13:04 48.25392 3.39038 38220 ft 413 kts 336°
2026-04-26 13:05 48.29801 3.36297 38224 ft 413 kts 336°
2026-04-26 13:05 48.35112 3.32990 38228 ft 412 kts 336°
2026-04-26 13:06 48.40408 3.29685 38237 ft 411 kts 336°
2026-04-26 13:06 48.45653 3.26366 38227 ft 411 kts 335°
2026-04-26 13:07 48.50926 3.22997 38227 ft 410 kts 335°
2026-04-26 13:07 48.56179 3.19635 38233 ft 409 kts 335°
2026-04-26 13:08 48.61417 3.16279 38255 ft 408 kts 335°
2026-04-26 13:08 48.66261 3.11897 38255 ft 406 kts 321°
2026-04-26 13:09 48.70687 3.06635 38245 ft 406 kts 321°
2026-04-26 13:09 48.75138 3.01347 38234 ft 406 kts 321°
2026-04-26 13:10 48.79442 2.96265 38246 ft 406 kts 321°
2026-04-26 13:10 48.83901 2.91011 38250 ft 407 kts 321°
2026-04-26 13:11 48.88411 2.85690 38250 ft 408 kts 321°
2026-04-26 13:11 48.92872 2.80417 38263 ft 409 kts 321°
2026-04-26 13:12 48.97372 2.75084 38262 ft 410 kts 321°
2026-04-26 13:12 49.01845 2.69771 38267 ft 410 kts 321°
2026-04-26 13:13 49.06347 2.64410 38282 ft 411 kts 321°
2026-04-26 13:13 49.10832 2.59058 38263 ft 411 kts 321°
2026-04-26 13:14 49.15340 2.53664 38267 ft 411 kts 321°
2026-04-26 13:14 49.19853 2.48253 38260 ft 411 kts 321°
2026-04-26 13:15 49.24362 2.42832 38263 ft 411 kts 321°
2026-04-26 13:15 49.28800 2.37485 38273 ft 411 kts 321°
2026-04-26 13:16 49.33295 2.32057 38266 ft 411 kts 321°
2026-04-26 13:16 49.37771 2.26637 38265 ft 410 kts 321°
2026-04-26 13:17 49.44494 2.18473 38261 ft 409 kts 320°
2026-04-26 13:18 49.51120 2.10398 38282 ft 409 kts 320°
2026-04-26 13:19 49.57836 2.02184 38270 ft 410 kts 320°
2026-04-26 13:19 49.62122 1.96926 38269 ft 410 kts 320°
2026-04-26 13:20 49.66514 1.91526 38266 ft 410 kts 320°
2026-04-26 13:20 49.70982 1.86019 38278 ft 411 kts 320°
2026-04-26 13:21 49.75447 1.80503 38276 ft 411 kts 320°
2026-04-26 13:21 49.79932 1.74947 38279 ft 411 kts 320°
2026-04-26 13:22 49.84391 1.69411 38271 ft 412 kts 319°
2026-04-26 13:22 49.88867 1.63839 38279 ft 412 kts 319°
2026-04-26 13:23 49.93348 1.58248 38278 ft 413 kts 319°
2026-04-26 13:23 49.97800 1.52682 38288 ft 413 kts 319°
2026-04-26 13:24 50.02185 1.46944 38281 ft 413 kts 317°
2026-04-26 13:24 50.06490 1.41025 38286 ft 412 kts 317°
2026-04-26 13:25 50.10789 1.35113 38267 ft 412 kts 316°
2026-04-26 13:25 50.15087 1.29225 38287 ft 412 kts 316°
2026-04-26 13:26 50.18672 1.24315 38287 ft 412 kts 316°
2026-04-26 13:26 50.21127 1.20948 38293 ft 412 kts 316°
2026-04-26 13:27 50.25437 1.15025 38289 ft 412 kts 316°
2026-04-26 13:27 50.29750 1.09081 38293 ft 412 kts 316°
2026-04-26 13:28 50.34030 1.03170 38296 ft 412 kts 316°
2026-04-26 13:28 50.38178 0.97424 38296 ft 412 kts 316°
2026-04-26 13:29 50.42480 0.91453 38312 ft 412 kts 316°
2026-04-26 13:29 50.46804 0.85518 38298 ft 413 kts 317°
2026-04-26 13:30 50.51178 0.79733 38302 ft 413 kts 317°
2026-04-26 13:30 50.55558 0.73895 38306 ft 413 kts 317°
2026-04-26 13:31 50.59949 0.68045 38305 ft 413 kts 317°
2026-04-26 13:31 50.64353 0.62169 38303 ft 413 kts 317°
2026-04-26 13:32 50.68667 0.56394 38302 ft 414 kts 317°
2026-04-26 13:32 50.73020 0.50554 38307 ft 414 kts 317°
2026-04-26 13:33 50.77563 0.44927 38293 ft 417 kts 329°
2026-04-26 13:33 50.83092 0.42028 38296 ft 426 kts 351°
2026-04-26 13:34 50.88929 0.41503 38299 ft 429 kts 354°
2026-04-26 13:34 50.94938 0.41138 37757 ft 435 kts 354°
2026-04-26 13:34 50.96944 0.41006 37434 ft 433 kts 354°
2026-04-26 13:35 51.00951 0.40722 36729 ft 430 kts 353°
2026-04-26 13:35 51.03943 0.40494 36162 ft 430 kts 353°
2026-04-26 13:35 51.06899 0.40261 35572 ft 431 kts 353°
2026-04-26 13:35 51.09724 0.40033 35014 ft 431 kts 353°
2026-04-26 13:36 51.12663 0.39794 34435 ft 432 kts 353°
2026-04-26 13:36 51.15680 0.39548 33765 ft 434 kts 353°
2026-04-26 13:36 51.18703 0.39301 33084 ft 434 kts 353°
2026-04-26 13:36 51.21716 0.39058 32677 ft 430 kts 353°
2026-04-26 13:37 51.24672 0.38819 32204 ft 426 kts 353°
2026-04-26 13:37 51.27468 0.38593 31786 ft 423 kts 353°
2026-04-26 13:37 51.30468 0.38350 31351 ft 420 kts 353°
2026-04-26 13:37 51.33420 0.38110 31006 ft 417 kts 353°
2026-04-26 13:38 51.36297 0.37875 30577 ft 414 kts 353°
2026-04-26 13:38 51.39168 0.37640 30100 ft 411 kts 353°
2026-04-26 13:38 51.42020 0.37406 29617 ft 408 kts 353°
2026-04-26 13:38 51.44867 0.37173 29003 ft 408 kts 353°
2026-04-26 13:39 51.47710 0.36938 28314 ft 410 kts 354°
2026-04-26 13:39 51.50522 0.36705 27779 ft 409 kts 354°
2026-04-26 13:39 51.53359 0.36473 27331 ft 405 kts 354°
2026-04-26 13:39 51.56164 0.36243 26892 ft 401 kts 354°
2026-04-26 13:40 51.58933 0.36015 26436 ft 399 kts 354°
2026-04-26 13:40 51.61127 0.35834 26074 ft 397 kts 354°
2026-04-26 13:40 51.63903 0.35605 25542 ft 397 kts 354°
2026-04-26 13:40 51.66609 0.35380 25031 ft 397 kts 354°
2026-04-26 13:41 51.69394 0.35148 24512 ft 396 kts 354°
2026-04-26 13:41 51.72147 0.34920 24024 ft 396 kts 354°
2026-04-26 13:41 51.74872 0.34695 23772 ft 387 kts 354°
2026-04-26 13:41 51.77545 0.34474 23420 ft 381 kts 354°
2026-04-26 13:42 51.80197 0.34253 22763 ft 384 kts 354°
2026-04-26 13:42 51.82879 0.34028 22132 ft 386 kts 355°
2026-04-26 13:42 51.85551 0.33804 21500 ft 387 kts 355°
2026-04-26 13:42 51.88221 0.33581 20858 ft 381 kts 355°
2026-04-26 13:43 51.90804 0.33366 20245 ft 375 kts 355°
2026-04-26 13:43 51.93379 0.33152 19641 ft 369 kts 355°
2026-04-26 13:43 51.95932 0.32938 19040 ft 363 kts 355°
2026-04-26 13:43 51.98446 0.32726 18430 ft 358 kts 355°
2026-04-26 13:44 52.00037 0.32593 18008 ft 355 kts 355°
2026-04-26 13:44 52.02300 0.32402 17391 ft 352 kts 355°
2026-04-26 13:44 52.05539 0.32082 16534 ft 345 kts 349°
2026-04-26 13:44 52.07092 0.31390 16071 ft 339 kts 333°
2026-04-26 13:45 52.08976 0.29215 15470 ft 330 kts 310°
2026-04-26 13:45 52.10223 0.26183 14882 ft 323 kts 292°
2026-04-26 13:45 52.10863 0.22737 14278 ft 318 kts 275°
2026-04-26 13:45 52.10923 0.19156 13640 ft 314 kts 268°
2026-04-26 13:46 52.10859 0.15896 13050 ft 313 kts 267°
2026-04-26 13:46 52.10769 0.12284 12381 ft 310 kts 267°
2026-04-26 13:46 52.10688 0.08841 11755 ft 308 kts 267°
2026-04-26 13:46 52.10615 0.05384 11146 ft 306 kts 268°
2026-04-26 13:47 52.10549 0.01904 10536 ft 304 kts 268°
2026-04-26 13:47 52.10495 -0.01057 9998 ft 303 kts 268°
2026-04-26 13:47 52.10436 -0.04478 9335 ft 301 kts 268°
2026-04-26 13:47 52.10377 -0.07882 8680 ft 299 kts 268°
2026-04-26 13:48 52.10318 -0.11210 8435 ft 285 kts 268°
2026-04-26 13:48 52.10261 -0.14356 8296 ft 270 kts 268°
2026-04-26 13:48 52.09919 -0.17216 7987 ft 260 kts 243°
2026-04-26 13:48 52.08895 -0.19645 7478 ft 261 kts 229°
2026-04-26 13:49 52.07671 -0.21864 7018 ft 263 kts 227°
2026-04-26 13:49 52.06430 -0.24062 6762 ft 262 kts 227°
2026-04-26 13:49 52.05212 -0.26243 6540 ft 259 kts 227°
2026-04-26 13:49 52.04050 -0.28338 6255 ft 259 kts 227°
2026-04-26 13:50 52.03170 -0.29929 6049 ft 258 kts 227°
2026-04-26 13:50 52.02014 -0.32025 5992 ft 249 kts 227°
2026-04-26 13:50 52.00880 -0.34081 5960 ft 239 kts 227°
2026-04-26 13:50 51.99840 -0.36054 5944 ft 228 kts 236°
2026-04-26 13:51 51.99280 -0.38342 5832 ft 222 kts 253°
2026-04-26 13:51 51.98837 -0.40864 5274 ft 243 kts 252°
2026-04-26 13:51 51.98350 -0.43542 5135 ft 250 kts 252°
2026-04-26 13:51 51.97643 -0.46124 4994 ft 252 kts 232°
2026-04-26 13:52 51.96538 -0.48302 4989 ft 250 kts 229°
2026-04-26 13:52 51.95436 -0.50491 4986 ft 250 kts 230°
2026-04-26 13:52 51.94344 -0.52700 4983 ft 252 kts 230°
2026-04-26 13:52 51.93247 -0.54943 4980 ft 255 kts 230°
2026-04-26 13:53 51.92151 -0.57188 4968 ft 253 kts 230°
2026-04-26 13:53 51.91099 -0.59345 4969 ft 245 kts 230°
2026-04-26 13:53 51.90105 -0.61544 4952 ft 238 kts 242°
2026-04-26 13:53 51.89607 -0.64000 4951 ft 228 kts 254°
2026-04-26 13:54 51.89204 -0.66433 4964 ft 221 kts 253°
2026-04-26 13:54 51.88804 -0.68750 4967 ft 217 kts 253°
2026-04-26 13:54 51.88391 -0.71130 4944 ft 213 kts 252°
2026-04-26 13:55 51.86954 -0.75037 4959 ft 212 kts 202°
2026-04-26 13:55 51.85970 -0.75410 4781 ft 221 kts 177°
2026-04-26 13:55 51.82645 -0.73516 4190 ft 221 kts 130°
2026-04-26 13:56 51.82121 -0.71256 4019 ft 220 kts 91°
2026-04-26 13:56 51.82277 -0.68822 3798 ft 219 kts 84°
2026-04-26 13:56 51.82468 -0.66690 3555 ft 214 kts 82°
2026-04-26 13:56 51.82773 -0.64361 3323 ft 209 kts 77°
2026-04-26 13:57 51.83140 -0.62123 3134 ft 202 kts 76°
2026-04-26 13:57 51.83505 -0.59981 2953 ft 190 kts 76°
2026-04-26 13:57 51.83840 -0.58027 2952 ft 172 kts 76°
2026-04-26 13:57 51.84148 -0.56215 2783 ft 163 kts 76°
2026-04-26 13:58 51.84450 -0.54441 2561 ft 162 kts 76°
2026-04-26 13:58 51.84739 -0.52752 2367 ft 153 kts 77°
2026-04-26 13:58 51.85008 -0.51155 2074 ft 149 kts 77°
2026-04-26 13:58 51.85246 -0.49522 1797 ft 142 kts 79°
2026-04-26 13:59 51.85493 -0.47985 1535 ft 141 kts 76°
2026-04-26 13:59 51.85794 -0.46507 1450 ft 139 kts 73°
2026-04-26 13:59 51.86099 -0.45009 1292 ft 140 kts 76°
2026-04-26 14:00 51.86819 -0.40465 839 ft 146 kts 73°
2026-04-26 14:00 51.87111 -0.38879 642 ft 143 kts 76°
2026-04-26 14:00 51.87277 -0.37904 538 ft 135 kts 74°
2026-04-26 14:01 51.87552 -0.36275 519 ft 100 kts 73°
2026-04-26 14:01 51.87643 -0.35924 515 ft 10 kts 30°
2026-04-26 14:01 51.87706 -0.35933 515 ft 10 kts 345°
2026-04-26 14:01 51.87767 -0.35995 515 ft 11 kts 312°
2026-04-26 14:02 51.87777 -0.36107 517 ft 10 kts 259°
2026-04-26 14:02 51.87759 -0.36218 517 ft 11 kts 255°
2026-04-26 14:02 51.87738 -0.36346 517 ft 12 kts 255°
2026-04-26 14:02 51.87715 -0.36471 519 ft 12 kts 253°
2026-04-26 14:03 51.87694 -0.36595 520 ft 11 kts 255°
2026-04-26 14:03 51.87674 -0.36716 521 ft 11 kts 255°
2026-04-26 14:03 51.87653 -0.36833 524 ft 10 kts 253°
2026-04-26 14:03 51.87662 -0.36927 523 ft 9 kts 310°
2026-04-26 14:04 51.87726 -0.36978 519 ft 12 kts 342°
2026-04-26 14:04 51.87823 -0.37029 512 ft 17 kts 343°
2026-04-26 14:04 51.87944 -0.37094 508 ft 19 kts 341°
2026-04-26 14:04 51.88059 -0.37154 507 ft 16 kts 341°
2026-04-26 14:05 51.88163 -0.37212 513 ft 14 kts 341°
2026-04-26 14:05 51.88229 -0.37272 518 ft 11 kts 291°
2026-04-26 14:05 51.88217 -0.37389 515 ft 11 kts 253°
2026-04-26 14:05 51.88204 -0.37483 515 ft 8 kts 274°
2026-04-26 14:06 51.88207 -0.37572 515 ft 8 kts 257°
2026-04-26 14:06 51.88189 -0.37640 519 ft 5 kts 241°
2026-04-26 14:06 51.88173 -0.37686 522 ft 4 kts 236°
2026-04-26 14:06 51.88152 -0.37710 522 ft 4 kts 194°
2026-04-26 14:07 51.88127 -0.37707 522 ft 3 kts 174°
2026-04-26 14:07 51.88117 -0.37705 522 ft 0 kts 169°